Location: Unspecified
(0.0000°N, 0.0000°E)
Time: 13:24:17
(UTC+00:00)

HULIANWANG DIGUI-82 - Pass Details

Date: 15 November 2025
Orbit: 1167 x 1169 km, 86.5° (Epoch: 13 December)

Event Time Altitude Azimuth Distance (km) Brightness Sun altitude
Rises 03:07:59 0° 159° (SSE) 4,046 ? -36.8°
Reaches altitude 10° 03:10:58 10° 149° (SSE) 3,081 ? -36.1°
Maximum altitude 03:17:08 32° 89° (E) 1,904 ? -34.7°
Drops below altitude 10° 03:23:16 10° 30° (NNE) 3,072 ? -33.3°
Sets 03:26:13 0° 20° (NNE) 4,031 ? -32.6°
